Regional Weather Roundup
Issued by NWS

Home | Current Version | Previous Version | Graphics & Text | Print | Product List | Glossary On
Versions: 1 2 3 4 5 6 7 8 9 10 11 12 13 14 15 16 17 18 19 20 21 22 23 24 25 26 27 28 29 30 31 32 33 34 35 36 37 38 39 40 41 42 43 44 45 46 47 48 49 50
000
ASUS43 KDTX 290601
RWRMI
MICHIGAN HOURLY REGIONAL WEATHER ROUNDUP
NATIONAL WEATHER SERVICE DETROIT/PONTIAC MI
200 AM EDT MON MAY 29 2017

NOTE: "FAIR" INDICATES FEW OR NO CLOUDS BELOW 12,000 FEET WITH NO
SIGNIFICANT WEATHER AND/OR OBSTRUCTION TO VISIBILITY.

MIZ047>049-052>055-059>063-066>070-074>076-081>083-290700-
SOUTHEAST LOWER MICHIGAN

CITY           SKY/WX    TMP DP  RH WIND       PRES   REMARKS
ADRIAN         CLEAR     56  54  93 SW6       29.76R
6HR MIN TEMP:  56; 6HR MAX TEMP:  66; 6HR PCP:  0.01;

ALMA           CLEAR     56  53  89 CALM      29.70S
ANN ARBOR      CLEAR     54  53  97 SW3       29.73R
BAD AXE        PTCLDY    59  59 100 CALM      29.67F FOG
6HR MIN TEMP:  58; 6HR MAX TEMP:  68;

CARO           CLEAR     59  58  97 CALM      29.68F FOG
DETROIT CITY   CLOUDY    62  60  93 W8G17     29.70S
6HR MIN TEMP:  61; 6HR MAX TEMP:  65; 6HR PCP:  0.06;

DETROIT        MOCLDY    61  59  93 W6        29.72S
6HR MIN TEMP:  61; 6HR MAX TEMP:  64; 6HR PCP:  0.25;

FLINT          CLEAR     55  53  93 SW6       29.71S
6HR MIN TEMP:  55; 6HR MAX TEMP:  69; 6HR PCP:  0.08;

GROSSE ILE     MOCLDY    61  59  94 W3        29.71R
6HR MIN TEMP:  61; 6HR MAX TEMP:  63; 6HR PCP:  0.17;

HILLSDALE      CLEAR     54  52  94 SW3       29.76R
HOWELL         CLEAR     56  53  87 SW5       29.72S
6HR MIN TEMP:  56; 6HR MAX TEMP:  66; 6HR PCP:  0.01;


CITY           SKY/WX    TMP DP  RH WIND       PRES   REMARKS
JACKSON        CLEAR     57  53  86 SW6       29.74S
6HR MIN TEMP:  56; 6HR MAX TEMP:  68;

LAMBERTVILLE   CLEAR     60  57  91 CALM      29.75R
6HR MIN TEMP:  60; 6HR MAX TEMP:  65;

LANSING        CLEAR     58  51  78 S6        29.72S
6HR MIN TEMP:  58; 6HR MAX TEMP:  75;

LAPEER         FAIR      62  60  94 W5        29.70R
6HR MIN TEMP:  62; 6HR MAX TEMP:  69; 6HR PCP:  0.22;

MASON          CLEAR     58  53  85 S3        29.73S
MONROE         CLEAR     61  59  94 W8        29.73R
6HR MIN TEMP:  60; 6HR MAX TEMP:  63; 6HR PCP:  0.03;

MT. CLEMENS    CLOUDY    61  61 100 SW6       29.68F
6HR MIN TEMP:  61; 6HR MAX TEMP:  64; 6HR PCP:  0.25;

PONTIAC        PTCLDY    59  57  93 W6        29.70S
6HR MIN TEMP:  59; 6HR MAX TEMP:  65; 6HR PCP:  0.12;

PORT HOPE        N/A     56  54  93 S7        29.66R
6HR MIN TEMP:  55; 6HR MAX TEMP:  62; 6HR PCP:  0.36;

PORT HURON     CLOUDY    61  59  94 S5        29.69S FOG
TRI CITIES     PTCLDY    60  56  86 SW5       29.70R
6HR MIN TEMP:  59; 6HR MAX TEMP:  74;

MIDLAND        FAIR      55  54  95 CALM      29.68S
6HR MIN TEMP:  55; 6HR MAX TEMP:  75;

TROY           CLOUDY    61  59  94 SW5       29.72S
SAGINAW HB     CLEAR     59  52  77 S3        29.69S
$$
MIZ043>046-050>051-056>058-064>065-071>073-077>080-290700-
SOUTHWEST LOWER MICHIGAN

CITY           SKY/WX    TMP DP  RH WIND       PRES   REMARKS
BATTLE CREEK   CLEAR     58  55  90 SW9       29.75R
6HR MIN TEMP:  56; 6HR MAX TEMP:  71;

BENTON HARBOR  CLEAR     59  50  72 W8        29.75R
6HR MIN TEMP:  56; 6HR MAX TEMP:  65;

BIG RAPIDS     CLEAR     56  51  86 CALM      29.70R
6HR MIN TEMP:  53; 6HR MAX TEMP:  68;

COLDWATER      PTCLDY    58  56  91 SW7       29.76R
6HR MIN TEMP:  57; 6HR MAX TEMP:  72;

FREMONT        FAIR      53  53  99 SW3       29.70S
HOLLAND        CLEAR     58  51  78 W7        29.73S
6HR MIN TEMP:  58; 6HR MAX TEMP:  66;

GRAND RAPIDS   CLEAR     58  56  93 SW8       29.72S
6HR MIN TEMP:  57; 6HR MAX TEMP:  70;

IONIA          FAIR      60  54  82 W9        29.71R
6HR MIN TEMP:  58; 6HR MAX TEMP:  72;

KALAMAZOO      CLEAR     59  53  80 SW7       29.75R
6HR MIN TEMP:  57; 6HR MAX TEMP:  69;

LUDINGTON      CLEAR     53  51  91 SW6       29.68S
6HR MIN TEMP:  53; 6HR MAX TEMP:  62;

MARSHALL       CLEAR     58  56  92 SW5       29.74R
6HR MIN TEMP:  56; 6HR MAX TEMP:  71;

MOUNT PLEASANT CLEAR     58  52  80 W7        29.68F
6HR MIN TEMP:  57; 6HR MAX TEMP:  72;

MUSKEGON       CLEAR     54  51  90 CALM      29.72R
6HR MIN TEMP:  54; 6HR MAX TEMP:  63;

SOUTH HAVEN    CLEAR     63  51  67 W7        29.74R
$$
MIZ016>042-290700-
NORTHERN LOWER MICHIGAN

CITY           SKY/WX    TMP DP  RH WIND       PRES   REMARKS
ALPENA         FOG       54  54 100 CALM      29.65F VSB 1/4
6HR MIN TEMP:  54; 6HR MAX TEMP:  61;

BEAVER ISLAND  CLEAR     54  52  93 S6        29.62F
6HR MIN TEMP:  50; 6HR MAX TEMP:  56;

BELLAIRE       PTCLDY    52  51  95 CALM      29.65S FOG
6HR MIN TEMP:  52; 6HR MAX TEMP:  65;

CADILLAC       CLEAR     53  51  95 SW3       29.68S
CHARLEVOIX     CLEAR     54  54 100 CALM      29.66F FOG
6HR MIN TEMP:  52; 6HR MAX TEMP:  63;

FRANKFORT      CLEAR     49  45  87 CALM      29.66F
GAYLORD        CLEAR     54  50  86 S3        29.65F
6HR MIN TEMP:  54; 6HR MAX TEMP:  67;

GRAYLING       CLEAR     50  50  99 CALM      29.67F
6HR MIN TEMP:  49; 6HR MAX TEMP:  67;

HARBOR SPRINGS CLOUDY    50  50 100 CALM      29.63F FOG
HOUGHTON LAKE  CLEAR     53  50  89 S5        29.68S
6HR MIN TEMP:  53; 6HR MAX TEMP:  69;

MANISTEE       CLEAR     50  48  93 CALM      29.67S
OSCODA         PTCLDY    52  51  96 CALM      29.66F FOG
6HR MIN TEMP:  52; 6HR MAX TEMP:  63;

PELLSTON       CLOUDY    53  50  89 CALM      29.63F
6HR MIN TEMP:  51; 6HR MAX TEMP:  63; 6HR PCP:  0.01;

ROGERS CITY    CLEAR     55  55  97 S5        29.65S
TRAVERSE CITY  CLEAR     54  52  93 CALM      29.64F
6HR MIN TEMP:  53; 6HR MAX TEMP:  67;

$$
MIZ007>008-015-290700-
EASTERN UPPER MICHIGAN

CITY           SKY/WX    TMP DP  RH WIND       PRES   REMARKS
KINROSS        CLOUDY    52  51  97 SE7       29.63S FOG
6HR MIN TEMP:  51; 6HR MAX TEMP:  55;

MACKINAC ISLAN PTCLDY    53  53 100 S3        29.62F
6HR MIN TEMP:  50; 6HR MAX TEMP:  56;

NEWBERRY       CLOUDY    53  52  97 SW10      29.62S FOG
6HR MIN TEMP:  52; 6HR MAX TEMP:  55;

S. S. MARIE    FOG       54  53  97 E5        29.63S VSB 1/4
6HR MIN TEMP:  54; 6HR MAX TEMP:  59;

MUNISING         N/A     54  54 100 SW8       29.61F
6HR MIN TEMP:  54; 6HR MAX TEMP:  56; 6HR PCP:  0.03;

$$
MIZ004>006-011>014-085-290700-
CENTRAL UPPER MICHIGAN

CITY           SKY/WX    TMP DP  RH WIND       PRES   REMARKS
MANISTIQUE     CLOUDY    51  48  90 W3        29.63S FOG
6HR MIN TEMP:  49; 6HR MAX TEMP:  52; 6HR PCP:  0.03;

ESCANABA       FOG       51  51 100 CALM      29.64S VSB 1/4
6HR MIN TEMP:  51; 6HR MAX TEMP:  55; 6HR PCP:  0.02;

SAWYER-GWINN   CLOUDY    52  51  97 SW8       29.63F
6HR MIN TEMP:  51; 6HR MAX TEMP:  55;

$$
MIZ001>003-009>011-084-290700-
WESTERN UPPER MICHIGAN

CITY           SKY/WX    TMP DP  RH WIND       PRES   REMARKS
IRON MOUNTAIN  FOG       48  46  93 CALM      29.62F VSB 1/4
6HR MIN TEMP:  48; 6HR MAX TEMP:  61; 6HR PCP: TRACE;

HOUGHTON       CLOUDY    52  48  86 CALM      29.59S
6HR MIN TEMP:  52; 6HR MAX TEMP:  58;

COPPER HARBOR    N/A     51  48  89 CALM      29.59S
6HR MIN TEMP:  50; 6HR MAX TEMP:  55;

IRONWOOD       CLOUDY    52  50  93 SW9       29.62F
6HR MIN TEMP:  51; 6HR MAX TEMP:  54;

$$

ABBREVIATIONS USED IN REMARKS
   TC - TEMPERATURE IN CELSIUS
  WCI - WIND CHILL INDEX
   HX - HEAT INDEX
  VSB - VISIBILITY





USA.gov is the U.S. government's official web portal to all federal, state and local government web resources and services.